Regional Weather Roundup
Issued by NWS

Home | Current Version | Previous Version | Graphics & Text | Print | Product List | Glossary On
Versions: 1 2 3 4 5 6 7 8 9 10 11 12 13 14 15 16 17 18 19 20 21 22 23 24 25 26 27 28 29 30 31 32 33 34 35 36 37 38 39 40 41 42 43 44 45 46 47 48 49 50
000
ASUS45 KTFX 202204
RWRMT
MONTANA HOURLY WEATHER ROUNDUP
NATIONAL WEATHER SERVICE GREAT FALLS MT
404 PM MDT SUN APR 20 2014

NOTE: "FAIR" INDICATES FEW OR NO CLOUDS BELOW 12000 FEET WITH NO
SIGNIFICANT WEATHER AND/OR OBSTRUCTIONS TO VISIBILITY.

* THESE STATIONS ARE NOT UNDER NWS QUALITY CONTROL. THEY DO NOT
   REPORT WEATHER SUCH AS PRECIPITATION OR FOG.

MTZ001>007-043-202300-
WEST OF THE DIVIDE
CITY           SKY/WX    TMP DP  RH WIND       PRES   REMARKS
KALISPELL      CLOUDY    55  27  34 S9G16     30.19S
MISSOULA       SUNNY     57  21  25 N12G20    30.22F
BUTTE          SUNNY     54   9  16 NW14G23   30.17S
MULLAN PASS    PTCLDY    37  19  48 VRB6      30.23S WCI  32
* ESSEX        N/A       49  21  33 SE6        N/A
* LINCOLN      N/A       53  17  24 SW6G19     N/A
* LOOKOUT PASS N/A       46  22  39 SE4G12     N/A
* POLSON       N/A       58  21  24 W4G10      N/A
* RONAN APT    SUNNY     55  21  27 SW8        N/A
* SEELEY LAKE  N/A       53  18  25 W8G21      N/A
* THOMP F APT  SUNNY     61  13  15 S10G18     N/A
* YAAK HILL    N/A       57  25  29 S4         N/A
$$

MTZ008-052>055-202300-
SOUTHWEST MONTANA
CITY           SKY/WX    TMP DP  RH WIND       PRES   REMARKS
BOZEMAN        SUNNY     61  12  14 W14G24    30.14S
DILLON         SUNNY     57   7  13 W13G20    30.16F
W YELLOWSTONE  N/A       57  11  16 SW5G12     N/A
* THREE FORKS  SUNNY     63  16  16 W17G25     N/A
* BOULDER HILL N/A       52  16  24 SE1G20     N/A
* MONIDA PASS  N/A       53   8  16 NW9G16     N/A
* RAYNOLDS PAS N/A       55  35  47 S3G12      N/A
* WHITEHALL    N/A       64  10  12 W8G20      N/A
* WISE RIVER   N/A       52  11  19 NW17G26    N/A
$$

MTZ009>010-012-014-046-048-049-054-202300-
EAST SLOPES AND CENTRAL MONTANA
CITY           SKY/WX    TMP DP  RH WIND       PRES   REMARKS
CUT BANK       SUNNY     55  19  24 W21G36    30.09R
GREAT FALLS    SUNNY     57  14  18 W18G29    30.11R
HELENA         SUNNY     61  12  14 NW17G24   30.14F
MALMSTROM AFB  SUNNY     59  12  15 W14G21    30.09R
* CONRAD       SUNNY     57  16  20 W16G26     N/A
* DEARBORN     N/A       57  16  20 S17G24     N/A
* MONARCH      N/A       50  10  20 NW22G28    N/A
* PENDROY      N/A       53  18  25 W23G30     N/A
* ROGERS PASS  N/A       47  15  28 S9G23      N/A
* SAINT MARY   N/A       48  25  41 S9G22      N/A
* SWEET GRASS  N/A       55  17  22 NW22G30    N/A
$$

MTZ011-013-016-021-035-040-045-047-050-051-202300-
NORTH CENTRAL MONTANA
CITY           SKY/WX    TMP DP  RH WIND       PRES   REMARKS
HAVRE          PTSUNNY   63  19  18 W23G32    30.02S
LEWISTOWN      SUNNY     57  12  17 NW24G35   30.09R
* CHESTER      N/A       59  19  21 W15G27     N/A
* DENTON       N/A       60  19  20 NW16G29    N/A
* GEYSER       N/A       56  15  20 W20G30     N/A
* JUDITH GAP   N/A       57  14  18 NW13G22    N/A
* LOMA         N/A       61  19  20 W17G30     N/A
$$

MTZ017>020-022>027-061-062-202300-
NORTHEAST MONTANA
CITY           SKY/WX    TMP DP  RH WIND       PRES   REMARKS
GLASGOW        PTSUNNY   63  27  26 NW22G40   29.97R
GLENDIVE       SUNNY     66  21  18 W24G33    30.00S
JORDAN         SUNNY     64  18  17 W21G30    30.02R
SIDNEY         SUNNY     66  27  23 W23G30    29.95S
WOLF POINT     SUNNY     66  25  21 W29G39    29.95R
* BEAVER HILL  N/A       63  19  18 W20G35     N/A
* CIRCLE       N/A       65  29  26 W13G29     N/A
* LINDSAY DVD  N/A       61  20  20 W20G28     N/A
* NAVAJO       N/A       59  27  29 W26G37     N/A
* SACO         N/A       62  23  22 W26G35     N/A
$$

MTZ028>042-056>058-202300-
SOUTHCENTRAL AND SOUTHEAST MONTANA
CITY           SKY/WX    TMP DP  RH WIND       PRES   REMARKS
BAKER          SUNNY     66  19  16 NW23G33   30.00S
BILLINGS       SUNNY     64  14  14 NW21G30   30.07R
LIVINGSTON     PTCLDY    63  16  16 W24G30    30.10S
MILES CITY     SUNNY     66  18  16 NW24G33   30.02S
* LAUREL APT   SUNNY     66  25  21 W15G28     N/A
* ROUNDUP APT  SUNNY     63   7  11 N/A        N/A
* HYSHAM       N/A       63  13  14 W16G29     N/A
* LAME DEER    N/A       59  12  15 NW13G24    N/A
* REED POINT   N/A       64  22  20 W23G33     N/A
* ROSCOE HILL  N/A       60  12  15 NW10G17    N/A
$$

REGIONAL REPORTS...DAKOTAS
CITY           SKY/WX    TMP DP  RH WIND       PRES   REMARKS
WILLISTON      PTCLDY    66  27  23 W28G38    29.91R
DICKINSON      PTCLDY    68  23  18 W25G33    29.93R
CROSBY         SUNNY     63  32  31 NW22G37   29.86R
TIOGA          PTSUNNY   64  27  25 W29G44    29.91R
WATFORD CITY   SUNNY     66  25  21 W21G33    29.91R
BISMARCK       CLOUDY    77  34  21 SW15      29.85F
GRAND FORKS    PTSUNNY   72  37  28 S13       29.89F
FARGO          PTCLDY    75  28  18 SW13G18   29.91F
BUFFALO SD     PTCLDY    68  27  21 NW24G32   29.92S
RAPID CITY     PTSUNNY   68  30  24 N32G45    29.96R
$$

REGIONAL REPORTS...WYOMING/IDAHO/WASHINGTON
CITY           SKY/WX    TMP DP  RH WIND       PRES   REMARKS
GILLETTE       SUNNY     63  32  31 N12       30.06S
SHERIDAN       SUNNY     63  30  29 N17G23    30.07S
CODY           PTCLDY    63  30  29 N5        30.07S
YELLOWSTONE LA SUNNY     48  14  25 W13       30.24R
SALMON         SUNNY     59  16  18 NW3       30.16F
MULLAN PASS    PTCLDY    37  19  48 VRB6      30.23S WCI  32
SPOKANE        PTSUNNY   55  25  31 S8        30.24F

$$




USA.gov is the U.S. government's official web portal to all federal, state and local government web resources and services.